| time (UTC) | temp F | wind direction | speed MPH | gust MPH | rain 1hr in | rain 24hr in | rain mn in | humidity % | barometer mb |
| 20260902120038 | 71 | 275 | 1.0 | 2.0 | 0.00 | 0.00 | 0.00 | 96 | 1016.1 |
| 20260902114548 | 71 | 244 | 0.0 | 3.0 | 0.00 | 0.00 | 0.00 | 97 | 1015.6 |
| 20260902113013 | 71 | 165 | 0.0 | 3.0 | 0.00 | 0.00 | 0.00 | 97 | 1014.8 |
| 20260902111510 | 71 | 148 | 1.0 | 4.0 | 0.00 | 0.00 | 0.00 | 97 | 1013.9 |
| 20260902110008 | 71 | 175 | 1.0 | 3.0 | 0.00 | 0.00 | 0.00 | 97 | 1014.4 |
| 20260902104514 | 71 | 186 | 0.0 | 5.0 | 0.00 | 0.00 | 0.00 | 97 | 1014.3 |
| 20260902103004 | 71 | 163 | 1.0 | 3.0 | 0.00 | 0.00 | 0.00 | 97 | 1014.2 |
| 20260902101602 | 71 | 188 | 0.0 | 3.0 | 0.00 | 0.00 | 0.00 | 97 | 1014.3 |
| 20260902100103 | 70 | 182 | 1.0 | 2.0 | 0.00 | 0.00 | 0.00 | 97 | 1014.5 |
| 20260902094514 | 70 | 202 | 1.0 | 2.0 | 0.00 | 0.00 | 0.00 | 97 | 1014.6 |
| 20260902093021 | 70 | 190 | 1.0 | 3.0 | 0.00 | 0.00 | 0.00 | 97 | 1015.4 |
| 20260902091539 | 70 | 175 | 0.0 | 2.0 | 0.00 | 0.00 | 0.00 | 96 | 1015.4 |
| 20260902090054 | 70 | 186 | 1.0 | 2.0 | 0.00 | 0.00 | 0.00 | 96 | 1015.5 |
| 20260902084559 | 69 | 171 | 1.0 | 2.0 | 0.00 | 0.00 | 0.00 | 96 | 1015.5 |
| 20260902083048 | 69 | 130 | 0.0 | 1.0 | 0.00 | 0.00 | 0.00 | 96 | 1015.7 |
| 20260902081559 | 70 | 130 | 1.0 | 2.0 | 0.00 | 0.00 | 0.00 | 96 | 1015.9 |
| 20260902080044 | 70 | 170 | 0.0 | 2.0 | 0.00 | 0.01 | 0.00 | 96 | 1016.0 |
| 20260902074538 | 70 | 188 | 1.0 | 3.0 | 0.00 | 0.01 | 0.00 | 96 | 1016.1 |
| 20260902073056 | 70 | 175 | 0.0 | 4.0 | 0.00 | 0.01 | 0.00 | 95 | 1016.1 |
| 20260902071551 | 70 | 178 | 1.0 | 3.0 | 0.00 | 0.01 | 0.00 | 95 | 1016.2 |
| 20260902070045 | 70 | 178 | 1.0 | 3.0 | 0.00 | 0.01 | 0.00 | 95 | 1016.3 |
| 20260902064504 | 70 | 172 | 2.0 | 3.0 | 0.00 | 0.01 | 0.00 | 95 | 1016.2 |
| 20260902063100 | 70 | 174 | 1.0 | 3.0 | 0.00 | 0.01 | 0.00 | 95 | 1016.3 |
| 20260902060007 | 70 | 165 | 1.0 | 4.0 | 0.00 | 0.01 | 0.00 | 96 | 1016.3 |
| 20260902054505 | 70 | 182 | 1.0 | 3.0 | 0.00 | 0.01 | 0.00 | 96 | 1016.3 |
| 20260902053013 | 70 | 186 | 1.0 | 3.0 | 0.00 | 0.01 | 0.00 | 96 | 1016.4 |
| 20260902051545 | 70 | 155 | 1.0 | 3.0 | 0.00 | 0.01 | 0.00 | 96 | 1016.6 |
| 20260902050052 | 69 | 163 | 1.0 | 4.0 | 0.00 | 0.04 | 0.00 | 97 | 1016.5 |
| 20260902044505 | 69 | 169 | 1.0 | 4.0 | 0.00 | 0.04 | 0.00 | 97 | 1016.7 |
| 20260902043007 | 68 | 189 | 0.0 | 2.0 | 0.00 | 0.04 | 0.00 | 96 | 1016.5 |
| 20260902041601 | 68 | 188 | 0.0 | 2.0 | 0.00 | 0.04 | 0.00 | 96 | 1016.5 |
| 20260902040012 | 68 | 188 | 0.0 | 0.0 | 0.00 | 0.04 | 0.04 | 95 | 1016.5 |
| 20260902034505 | 68 | 188 | 0.0 | 0.0 | 0.00 | 0.04 | 0.04 | 95 | 1016.6 |
| 20260902033103 | 69 | 188 | 0.0 | 1.0 | 0.00 | 0.04 | 0.04 | 95 | 1016.6 |
| 20260902033002 | 69 | 188 | 0.0 | 0.0 | 0.00 | 0.04 | 0.04 | 95 | 1016.5 |
| 20260902031554 | 69 | 188 | 0.0 | 2.0 | 0.00 | 0.04 | 0.04 | 95 | 1016.4 |
| 20260902030018 | 69 | 174 | 0.0 | 2.0 | 0.00 | 0.04 | 0.04 | 95 | 1016.4 |
| 20260902024512 | 69 | 188 | 0.0 | 2.0 | 0.00 | 0.04 | 0.04 | 95 | 1016.5 |
| 20260902023040 | 69 | 123 | 0.0 | 3.0 | 0.00 | 0.04 | 0.04 | 95 | 1016.5 |
| 20260902021539 | 69 | 87 | 0.0 | 3.0 | 0.00 | 0.04 | 0.04 | 94 | 1016.5 |
| 20260902020104 | 70 | 148 | 0.0 | 2.0 | 0.00 | 0.04 | 0.04 | 94 | 1016.5 |
| 20260902014552 | 70 | 58 | 0.0 | 3.0 | 0.00 | 0.04 | 0.04 | 94 | 1016.6 |
| 20260902013018 | 70 | 127 | 1.0 | 3.0 | 0.00 | 0.04 | 0.04 | 93 | 1016.5 |
| 20260902011547 | 71 | 21 | 1.0 | 3.0 | 0.00 | 0.04 | 0.04 | 93 | 1016.5 |
| 20260902004548 | 71 | 87 | 0.0 | 0.0 | 0.00 | 0.04 | 0.04 | 92 | 1016.1 |
| 20260902003044 | 72 | 30 | 0.0 | 1.0 | 0.00 | 0.04 | 0.04 | 91 | 1015.8 |
| 20260902001530 | 72 | 15 | 0.0 | 4.0 | 0.00 | 0.04 | 0.04 | 91 | 1015.6 |
| 20260902000052 | 72 | 351 | 0.0 | 1.0 | 0.00 | 0.04 | 0.04 | 90 | 1015.3 |
| 20260901234544 | 73 | 163 | 0.0 | 2.0 | 0.00 | 0.04 | 0.04 | 89 | 1015.4 |
| 20260901233006 | 73 | 346 | 0.0 | 4.0 | 0.00 | 0.04 | 0.04 | 89 | 1015.4 |
| 20260901231557 | 74 | 134 | 0.0 | 3.0 | 0.00 | 0.04 | 0.04 | 88 | 1015.4 |
| 20260901230058 | 74 | 109 | 0.0 | 2.0 | 0.00 | 0.04 | 0.04 | 88 | 1015.6 |
| 20260901224606 | 75 | 61 | 0.0 | 4.0 | 0.00 | 0.04 | 0.04 | 88 | 1015.6 |
| 20260901224502 | 75 | 355 | 1.0 | 4.0 | 0.00 | 0.04 | 0.04 | 88 | 1015.6 |
| 20260901223009 | 76 | 5 | 0.0 | 4.0 | 0.00 | 0.04 | 0.04 | 88 | 1015.5 |
| 20260901221503 | 76 | 355 | 0.0 | 3.0 | 0.00 | 0.04 | 0.04 | 87 | 1015.5 |
| 20260901220101 | 76 | 355 | 1.0 | 3.0 | 0.00 | 0.05 | 0.04 | 87 | 1015.4 |
| 20260901214603 | 76 | 35 | 0.0 | 3.0 | 0.00 | 0.05 | 0.04 | 86 | 1015.5 |
| 20260901214503 | 76 | 49 | 1.0 | 3.0 | 0.00 | 0.05 | 0.04 | 86 | 1015.4 |
| 20260901213121 | 77 | 360 | 0.0 | 4.0 | 0.00 | 0.05 | 0.04 | 86 | 1015.4 |
| 20260901213002 | 77 | 360 | 0.0 | 4.0 | 0.00 | 0.05 | 0.04 | 86 | 1015.4 |
| 20260901211600 | 77 | 16 | 2.0 | 6.0 | 0.00 | 0.05 | 0.04 | 85 | 1015.4 |
| 20260901211503 | 77 | 19 | 2.0 | 6.0 | 0.00 | 0.05 | 0.04 | 85 | 1015.5 |
| 20260901210022 | 78 | 319 | 1.0 | 5.0 | 0.00 | 0.06 | 0.04 | 84 | 1015.3 |
| 20260901204514 | 77 | 36 | 0.0 | 3.0 | 0.00 | 0.06 | 0.04 | 85 | 1015.2 |
| 20260901203058 | 77 | 11 | 0.0 | 3.0 | 0.00 | 0.06 | 0.04 | 86 | 1015.2 |
| 20260901201545 | 76 | 74 | 1.0 | 5.0 | 0.00 | 0.06 | 0.04 | 87 | 1015.5 |
| 20260901200110 | 76 | 5 | 0.0 | 3.0 | 0.00 | 0.13 | 0.04 | 86 | 1015.7 |
| 20260901194559 | 77 | 9 | 0.0 | 4.0 | 0.00 | 0.13 | 0.04 | 87 | 1015.6 |
| 20260901194501 | 76 | 9 | 0.0 | 4.0 | 0.00 | 0.13 | 0.04 | 87 | 1015.6 |
| 20260901193021 | 76 | 17 | 1.0 | 6.0 | 0.00 | 0.13 | 0.04 | 87 | 1015.6 |
| 20260901191518 | 76 | 9 | 0.0 | 4.0 | 0.00 | 0.13 | 0.04 | 88 | 1015.6 |
| 20260901190007 | 75 | 20 | 1.0 | 6.0 | 0.00 | 0.54 | 0.04 | 87 | 1015.6 |
| 20260901184530 | 75 | 355 | 1.0 | 4.0 | 0.00 | 0.54 | 0.04 | 88 | 1015.7 |
| 20260901183056 | 76 | 17 | 1.0 | 7.0 | 0.00 | 0.54 | 0.04 | 87 | 1015.8 |
| 20260901181543 | 76 | 84 | 1.0 | 6.0 | 0.00 | 0.54 | 0.04 | 88 | 1015.7 |
| 20260901180040 | 77 | 350 | 1.0 | 9.0 | 0.00 | 0.69 | 0.04 | 86 | 1015.6 |
| 20260901174541 | 78 | 13 | 2.0 | 8.0 | 0.00 | 0.69 | 0.04 | 85 | 1015.2 |
| 20260901173040 | 78 | 19 | 3.0 | 6.0 | 0.00 | 0.69 | 0.04 | 86 | 1015.1 |
| 20260901171534 | 80 | 22 | 3.0 | 8.0 | 0.00 | 0.69 | 0.04 | 83 | 1015.1 |
| 20260901170036 | 81 | 343 | 2.0 | 4.0 | 0.00 | 0.80 | 0.04 | 81 | 1014.8 |
| 20260901164513 | 81 | 5 | 0.0 | 3.0 | 0.00 | 0.80 | 0.04 | 80 | 1014.8 |
| 20260901163011 | 81 | 250 | 0.0 | 4.0 | 0.00 | 0.80 | 0.04 | 83 | 1014.7 |
| 20260901161526 | 80 | 10 | 0.0 | 3.0 | 0.00 | 0.80 | 0.04 | 83 | 1014.8 |
| 20260901160027 | 79 | 328 | 1.0 | 5.0 | 0.00 | 0.85 | 0.04 | 84 | 1014.7 |
| 20260901154608 | 79 | 254 | 1.0 | 4.0 | 0.00 | 0.85 | 0.04 | 84 | 1014.7 |
| 20260901153106 | 78 | 329 | 1.0 | 3.0 | 0.00 | 0.85 | 0.04 | 85 | 1014.6 |
| 20260901153000 | 78 | 263 | 0.0 | 3.0 | 0.00 | 0.85 | 0.04 | 85 | 1014.7 |
| 20260901151559 | 78 | 49 | 1.0 | 3.0 | 0.00 | 0.85 | 0.04 | 89 | 1014.7 |
| 20260901151501 | 77 | 49 | 0.0 | 3.0 | 0.00 | 0.85 | 0.04 | 90 | 1014.7 |
| 20260901150104 | 77 | 28 | 0.0 | 2.0 | 0.00 | 0.96 | 0.04 | 93 | 1014.7 |
| 20260901144539 | 75 | 252 | 0.0 | 3.0 | 0.00 | 0.96 | 0.04 | 95 | 1014.8 |
| 20260901143039 | 74 | 265 | 0.0 | 2.0 | 0.00 | 0.96 | 0.04 | 97 | 1014.8 |
| 20260901141554 | 74 | 355 | 0.0 | 3.0 | 0.00 | 0.96 | 0.04 | 97 | 1014.5 |
| 20260901140051 | 73 | 24 | 1.0 | 3.0 | 0.00 | 1.18 | 0.04 | 98 | 1014.6 |
| 20260901134544 | 73 | 276 | 0.0 | 2.0 | 0.00 | 1.18 | 0.04 | 99 | 1014.6 |
| 20260901133040 | 73 | 259 | 0.0 | 2.0 | 0.00 | 1.18 | 0.04 | 99 | 1014.6 |
| 20260901131543 | 72 | 281 | 0.0 | 1.0 | 0.00 | 1.18 | 0.04 | 99 | 1014.8 |
| 20260901130015 | 72 | 295 | 0.0 | 2.0 | 0.00 | 1.31 | 0.04 | 99 | 1014.7 |
| 20260901124521 | 70 | 5 | 0.0 | 1.0 | 0.00 | 1.31 | 0.04 | 99 | 1014.8 |
| 20260901123055 | 70 | 5 | 0.0 | 1.0 | 0.00 | 1.31 | 0.04 | 99 | 1015.0 |
| 20260901121555 | 69 | 5 | 0.0 | 0.0 | 0.00 | 1.31 | 0.04 | 98 | 1014.9 |